PRIVATE WETTERSTATION BILLIGHEIM-ALLFELD                       ZURCK
Wetterdaten: Donnerstag, 14.04.2016
Datum Zeit Temp. A. Temp. A. min Temp. A. max Feuchte A. Luftdruck Regen Wind Richtung Richtung Sonnenschein ET Solar Taupunkt Windchill Windben Empfang
14.04.2016 00:00 7,5 C 7,5 C 7,7 C 91 % 1009,0 hPa 0,0 l/m 0,0 km/h (0 Bft) W-NW 292 0 min 0,000 mm 0 W/m 6,1 C 7,5 C 1,6 km/h (1 Bft) 100 %
14.04.2016 00:10 7,3 C 7,3 C 7,4 C 91 % 1009,1 hPa 0,0 l/m 0,0 km/h (0 Bft) W-NW 292 0 min 0,000 mm 0 W/m 5,9 C 7,3 C 4,8 km/h (1 Bft) 89 %
14.04.2016 00:20 7,3 C 7,3 C 7,3 C 91 % 1009,0 hPa 0,0 l/m 0,0 km/h (0 Bft) W-NW 292 0 min 0,000 mm 0 W/m 5,9 C 7,3 C 1,6 km/h (1 Bft) 100 %
14.04.2016 00:30 7,2 C 7,2 C 7,3 C 91 % 1009,1 hPa 0,0 l/m 0,0 km/h (0 Bft) N 0 0 min 0,000 mm 0 W/m 5,8 C 7,2 C 0,0 km/h (0 Bft) 100 %
14.04.2016 00:40 7,1 C 7,1 C 7,2 C 91 % 1009,1 hPa 0,0 l/m 0,0 km/h (0 Bft) N 0 0 min 0,000 mm 0 W/m 5,7 C 7,1 C 0,0 km/h (0 Bft) 100 %
14.04.2016 00:50 7,2 C 7,1 C 7,2 C 91 % 1009,0 hPa 0,0 l/m 0,0 km/h (0 Bft) W-NW 292 0 min 0,000 mm 0 W/m 5,8 C 7,2 C 1,6 km/h (1 Bft) 100 %
14.04.2016 01:00 7,3 C 7,2 C 7,3 C 91 % 1009,1 hPa 0,0 l/m 0,0 km/h (0 Bft) N 0 0 min 0,000 mm 0 W/m 5,9 C 7,3 C 0,0 km/h (0 Bft) 100 %
14.04.2016 01:10 7,3 C 7,3 C 7,3 C 91 % 1009,2 hPa 0,0 l/m 0,0 km/h (0 Bft) N 0 0 min 0,000 mm 0 W/m 5,9 C 7,3 C 0,0 km/h (0 Bft) 100 %
14.04.2016 01:20 7,3 C 7,3 C 7,3 C 91 % 1009,2 hPa 0,0 l/m 0,0 km/h (0 Bft) N 0 0 min 0,000 mm 0 W/m 5,9 C 7,3 C 0,0 km/h (0 Bft) 100 %
14.04.2016 01:30 7,3 C 7,3 C 7,3 C 91 % 1009,2 hPa 0,0 l/m 0,0 km/h (0 Bft) N 0 0 min 0,000 mm 0 W/m 5,9 C 7,3 C 0,0 km/h (0 Bft) 100 %
14.04.2016 01:40 7,1 C 7,1 C 7,3 C 91 % 1009,2 hPa 0,0 l/m 0,0 km/h (0 Bft) N 0 0 min 0,000 mm 0 W/m 5,7 C 7,1 C 0,0 km/h (0 Bft) 100 %
14.04.2016 01:50 6,9 C 6,9 C 7,1 C 91 % 1009,3 hPa 0,0 l/m 0,0 km/h (0 Bft) N 0 0 min 0,000 mm 0 W/m 5,5 C 6,9 C 0,0 km/h (0 Bft) 100 %
14.04.2016 02:00 6,8 C 6,8 C 6,9 C 91 % 1009,3 hPa 0,0 l/m 0,0 km/h (0 Bft) W-NW 292 0 min 0,000 mm 0 W/m 5,4 C 6,8 C 1,6 km/h (1 Bft) 99 %
14.04.2016 02:10 6,7 C 6,7 C 6,8 C 91 % 1009,5 hPa 0,0 l/m 0,0 km/h (0 Bft) N 0 0 min 0,000 mm 0 W/m 5,3 C 6,7 C 0,0 km/h (0 Bft) 100 %
14.04.2016 02:20 6,6 C 6,6 C 6,7 C 91 % 1009,5 hPa 0,0 l/m 0,0 km/h (0 Bft) W-NW 292 0 min 0,000 mm 0 W/m 5,2 C 6,6 C 1,6 km/h (1 Bft) 100 %
14.04.2016 02:30 6,7 C 6,6 C 6,7 C 91 % 1009,6 hPa 0,0 l/m 0,0 km/h (0 Bft) N 0 0 min 0,000 mm 0 W/m 5,3 C 6,7 C 0,0 km/h (0 Bft) 89 %
14.04.2016 02:40 6,6 C 6,6 C 6,7 C 91 % 1009,7 hPa 0,0 l/m 0,0 km/h (0 Bft) W-NW 292 0 min 0,000 mm 0 W/m 5,2 C 6,6 C 1,6 km/h (1 Bft) 99 %
14.04.2016 02:50 6,5 C 6,5 C 6,6 C 91 % 1009,8 hPa 0,0 l/m 0,0 km/h (0 Bft) N 0 0 min 0,000 mm 0 W/m 5,1 C 6,5 C 0,0 km/h (0 Bft) 100 %
14.04.2016 03:00 6,4 C 6,4 C 6,5 C 91 % 1009,9 hPa 0,0 l/m 0,0 km/h (0 Bft) N 0 0 min 0,000 mm 0 W/m 5,0 C 6,4 C 0,0 km/h (0 Bft) 100 %
14.04.2016 03:10 6,5 C 6,4 C 6,5 C 91 % 1010,0 hPa 0,0 l/m 0,0 km/h (0 Bft) N 0 0 min 0,000 mm 0 W/m 5,1 C 6,5 C 0,0 km/h (0 Bft) 99 %
14.04.2016 03:20 6,4 C 6,4 C 6,5 C 91 % 1010,1 hPa 0,0 l/m 0,0 km/h (0 Bft) N 0 0 min 0,000 mm 0 W/m 5,0 C 6,4 C 0,0 km/h (0 Bft) 100 %
14.04.2016 03:30 6,2 C 6,2 C 6,4 C 91 % 1010,1 hPa 0,0 l/m 0,0 km/h (0 Bft) N 0 0 min 0,000 mm 0 W/m 4,8 C 6,2 C 0,0 km/h (0 Bft) 100 %
14.04.2016 03:40 6,1 C 6,1 C 6,2 C 91 % 1010,1 hPa 0,0 l/m 0,0 km/h (0 Bft) N 0 0 min 0,000 mm 0 W/m 4,7 C 6,1 C 0,0 km/h (0 Bft) 100 %
14.04.2016 03:50 6,1 C 6,1 C 6,2 C 91 % 1010,1 hPa 0,0 l/m 0,0 km/h (0 Bft) N 0 0 min 0,000 mm 0 W/m 4,7 C 6,1 C 0,0 km/h (0 Bft) 100 %
14.04.2016 04:00 6,2 C 6,1 C 6,2 C 91 % 1010,1 hPa 0,0 l/m 0,0 km/h (0 Bft) N 0 0 min 0,000 mm 0 W/m 4,8 C 6,2 C 0,0 km/h (0 Bft) 100 %
14.04.2016 04:10 6,2 C 6,2 C 6,2 C 91 % 1010,1 hPa 0,0 l/m 0,0 km/h (0 Bft) N 0 0 min 0,000 mm 0 W/m 4,8 C 6,2 C 0,0 km/h (0 Bft) 100 %
14.04.2016 04:20 6,2 C 6,2 C 6,3 C 91 % 1010,3 hPa 0,0 l/m 0,0 km/h (0 Bft) N 0 0 min 0,000 mm 0 W/m 4,8 C 6,2 C 0,0 km/h (0 Bft) 99 %
14.04.2016 04:30 6,2 C 6,2 C 6,2 C 91 % 1010,2 hPa 0,0 l/m 0,0 km/h (0 Bft) N 0 0 min 0,000 mm 0 W/m 4,8 C 6,2 C 0,0 km/h (0 Bft) 100 %
14.04.2016 04:40 6,3 C 6,2 C 6,3 C 91 % 1010,4 hPa 0,0 l/m 0,0 km/h (0 Bft) N 0 0 min 0,000 mm 0 W/m 4,9 C 6,3 C 0,0 km/h (0 Bft) 88 %
14.04.2016 04:50 6,2 C 6,2 C 6,3 C 91 % 1010,5 hPa 0,0 l/m 0,0 km/h (0 Bft) N 0 0 min 0,000 mm 0 W/m 4,8 C 6,2 C 0,0 km/h (0 Bft) 100 %
14.04.2016 05:00 6,2 C 6,2 C 6,2 C 91 % 1010,5 hPa 0,0 l/m 0,0 km/h (0 Bft) W-NW 292 0 min 0,000 mm 0 W/m 4,8 C 6,2 C 1,6 km/h (1 Bft) 100 %
14.04.2016 05:10 6,2 C 6,2 C 6,3 C 91 % 1010,5 hPa 0,0 l/m 0,0 km/h (0 Bft) N 0 0 min 0,000 mm 0 W/m 4,8 C 6,2 C 0,0 km/h (0 Bft) 100 %
14.04.2016 05:20 6,3 C 6,2 C 6,3 C 91 % 1010,6 hPa 0,0 l/m 0,0 km/h (0 Bft) W-NW 292 0 min 0,000 mm 0 W/m 4,9 C 6,3 C 1,6 km/h (1 Bft) 100 %
14.04.2016 05:30 6,3 C 6,2 C 6,3 C 91 % 1010,6 hPa 0,0 l/m 0,0 km/h (0 Bft) N 0 0 min 0,000 mm 0 W/m 4,9 C 6,3 C 0,0 km/h (0 Bft) 100 %
14.04.2016 05:40 6,3 C 6,2 C 6,3 C 91 % 1010,7 hPa 0,0 l/m 0,0 km/h (0 Bft) N 0 0 min 0,000 mm 0 W/m 4,9 C 6,3 C 0,0 km/h (0 Bft) 100 %
14.04.2016 05:50 6,3 C 6,3 C 6,3 C 91 % 1010,7 hPa 0,0 l/m 0,0 km/h (0 Bft) N 0 0 min 0,000 mm 0 W/m 4,9 C 6,3 C 0,0 km/h (0 Bft) 100 %
14.04.2016 06:00 6,3 C 6,2 C 6,3 C 91 % 1010,8 hPa 0,0 l/m 0,0 km/h (0 Bft) N 0 0 min 0,000 mm 0 W/m 4,9 C 6,3 C 0,0 km/h (0 Bft) 100 %
14.04.2016 06:10 6,3 C 6,3 C 6,3 C 91 % 1011,0 hPa 0,0 l/m 0,0 km/h (0 Bft) N 0 0 min 0,000 mm 0 W/m 4,9 C 6,3 C 0,0 km/h (0 Bft) 100 %
14.04.2016 06:20 6,3 C 6,3 C 6,3 C 91 % 1011,0 hPa 0,0 l/m 0,0 km/h (0 Bft) N 0 0 min 0,000 mm 0 W/m 4,9 C 6,3 C 0,0 km/h (0 Bft) 100 %
14.04.2016 06:30 6,3 C 6,3 C 6,3 C 91 % 1011,0 hPa 0,0 l/m 0,0 km/h (0 Bft) W-NW 292 0 min 0,000 mm 0 W/m 4,9 C 6,3 C 1,6 km/h (1 Bft) 100 %
14.04.2016 06:40 6,3 C 6,3 C 6,3 C 91 % 1011,1 hPa 0,0 l/m 0,0 km/h (0 Bft) N 0 0 min 0,000 mm 0 W/m 4,9 C 6,3 C 0,0 km/h (0 Bft) 100 %
14.04.2016 06:50 6,4 C 6,3 C 6,4 C 92 % 1011,2 hPa 0,0 l/m 0,0 km/h (0 Bft) N 0 0 min 0,000 mm 0 W/m 5,2 C 6,4 C 0,0 km/h (0 Bft) 100 %
14.04.2016 07:00 6,4 C 6,4 C 6,4 C 92 % 1011,3 hPa 0,0 l/m 0,0 km/h (0 Bft) N 0 0 min 0,000 mm 0 W/m 5,2 C 6,4 C 0,0 km/h (0 Bft) 100 %
14.04.2016 07:10 6,4 C 6,4 C 6,4 C 92 % 1011,4 hPa 0,0 l/m 0,0 km/h (0 Bft) N 0 0 min 0,000 mm 0 W/m 5,2 C 6,4 C 0,0 km/h (0 Bft) 100 %
14.04.2016 07:20 6,4 C 6,4 C 6,4 C 92 % 1011,4 hPa 0,0 l/m 0,0 km/h (0 Bft) N 0 0 min 0,000 mm 0 W/m 5,2 C 6,4 C 0,0 km/h (0 Bft) 100 %
14.04.2016 07:30 6,5 C 6,4 C 6,5 C 91 % 1011,5 hPa 0,0 l/m 0,0 km/h (0 Bft) N 0 0 min 0,000 mm 0 W/m 5,1 C 6,5 C 0,0 km/h (0 Bft) 100 %
14.04.2016 07:40 6,6 C 6,5 C 6,6 C 91 % 1011,6 hPa 0,0 l/m 0,0 km/h (0 Bft) N 0 0 min 0,000 mm 0 W/m 5,2 C 6,6 C 0,0 km/h (0 Bft) 99 %
14.04.2016 07:50 6,6 C 6,6 C 6,6 C 91 % 1011,6 hPa 0,0 l/m 0,0 km/h (0 Bft) N 0 0 min 0,000 mm 0 W/m 5,2 C 6,6 C 0,0 km/h (0 Bft) 100 %
14.04.2016 08:00 6,7 C 6,6 C 6,7 C 91 % 1011,7 hPa 0,0 l/m 0,0 km/h (0 Bft) N 0 0 min 0,000 mm 12 W/m 5,3 C 6,7 C 0,0 km/h (0 Bft) 100 %
14.04.2016 08:10 6,7 C 6,7 C 6,7 C 91 % 1011,7 hPa 0,0 l/m 0,0 km/h (0 Bft) N 0 0 min 0,000 mm 21 W/m 5,3 C 6,7 C 0,0 km/h (0 Bft) 99 %
14.04.2016 08:20 6,9 C 6,7 C 6,9 C 91 % 1011,9 hPa 0,0 l/m 0,0 km/h (0 Bft) W-NW 292 0 min 0,000 mm 26 W/m 5,5 C 6,9 C 1,6 km/h (1 Bft) 100 %
14.04.2016 08:30 6,9 C 6,9 C 6,9 C 91 % 1011,9 hPa 0,0 l/m 0,0 km/h (0 Bft) N 0 0 min 0,000 mm 42 W/m 5,5 C 6,9 C 0,0 km/h (0 Bft) 100 %
14.04.2016 08:40 7,0 C 6,9 C 7,0 C 91 % 1012,0 hPa 0,0 l/m 0,0 km/h (0 Bft) N 0 0 min 0,000 mm 46 W/m 5,6 C 7,0 C 0,0 km/h (0 Bft) 100 %
14.04.2016 08:50 7,1 C 7,0 C 7,1 C 91 % 1012,0 hPa 0,0 l/m 0,0 km/h (0 Bft) N 0 0 min 0,000 mm 53 W/m 5,7 C 7,1 C 0,0 km/h (0 Bft) 100 %
14.04.2016 09:00 7,3 C 7,1 C 7,3 C 91 % 1012,2 hPa 0,0 l/m 0,0 km/h (0 Bft) W-NW 292 0 min 0,025 mm 65 W/m 5,9 C 7,3 C 1,6 km/h (1 Bft) 100 %
14.04.2016 09:10 7,3 C 7,3 C 7,3 C 91 % 1012,2 hPa 0,0 l/m 0,0 km/h (0 Bft) N 0 0 min 0,000 mm 88 W/m 5,9 C 7,3 C 0,0 km/h (0 Bft) 92 %
14.04.2016 09:20 7,5 C 7,3 C 7,5 C 91 % 1012,3 hPa 0,0 l/m 0,0 km/h (0 Bft) W-NW 292 0 min 0,000 mm 95 W/m 6,1 C 7,5 C 1,6 km/h (1 Bft) 100 %
14.04.2016 09:30 7,6 C 7,5 C 7,6 C 92 % 1012,4 hPa 0,0 l/m 0,0 km/h (0 Bft) N 0 0 min 0,000 mm 93 W/m 6,4 C 7,6 C 0,0 km/h (0 Bft) 100 %
14.04.2016 09:40 7,8 C 7,6 C 7,8 C 91 % 1012,7 hPa 0,0 l/m 1,6 km/h (1 Bft) W 270 0 min 0,000 mm 104 W/m 6,4 C 7,8 C 9,7 km/h (2 Bft) 100 %
14.04.2016 09:50 8,1 C 7,8 C 8,1 C 91 % 1012,9 hPa 0,0 l/m 1,6 km/h (1 Bft) SW 225 10 min 0,000 mm 225 W/m 6,7 C 8,1 C 9,7 km/h (2 Bft) 100 %
14.04.2016 10:00 8,8 C 8,1 C 8,8 C 91 % 1012,9 hPa 0,0 l/m 3,2 km/h (1 Bft) SW 225 10 min 0,051 mm 489 W/m 7,4 C 8,8 C 8,0 km/h (2 Bft) 98 %
14.04.2016 10:10 9,2 C 8,8 C 9,2 C 91 % 1013,0 hPa 0,0 l/m 1,6 km/h (1 Bft) S-SW 202 10 min 0,000 mm 522 W/m 7,8 C 9,2 C 8,0 km/h (2 Bft) 100 %
14.04.2016 10:20 9,6 C 9,2 C 9,6 C 91 % 1013,0 hPa 0,0 l/m 0,0 km/h (0 Bft) W 270 10 min 0,000 mm 408 W/m 8,2 C 9,6 C 6,4 km/h (2 Bft) 100 %
14.04.2016 10:30 9,8 C 9,6 C 9,8 C 89 % 1013,2 hPa 0,0 l/m 1,6 km/h (1 Bft) W-NW 292 10 min 0,000 mm 250 W/m 8,1 C 9,8 C 6,4 km/h (2 Bft) 100 %
14.04.2016 10:40 10,1 C 9,8 C 10,1 C 86 % 1013,2 hPa 0,0 l/m 1,6 km/h (1 Bft) W 270 10 min 0,000 mm 301 W/m 7,9 C 10,1 C 9,7 km/h (2 Bft) 100 %
14.04.2016 10:50 10,4 C 10,1 C 10,4 C 86 % 1013,3 hPa 0,0 l/m 3,2 km/h (1 Bft) W-NW 292 10 min 0,000 mm 336 W/m 8,2 C 10,4 C 11,3 km/h (2 Bft) 100 %
14.04.2016 11:00 10,8 C 10,4 C 10,8 C 83 % 1013,3 hPa 0,0 l/m 6,4 km/h (2 Bft) SW 225 10 min 0,152 mm 694 W/m 8,0 C 10,8 C 11,3 km/h (2 Bft) 100 %
14.04.2016 11:10 11,7 C 10,8 C 11,7 C 80 % 1013,2 hPa 0,0 l/m 1,6 km/h (1 Bft) SW 225 10 min 0,000 mm 689 W/m 8,4 C 11,7 C 8,0 km/h (2 Bft) 100 %
14.04.2016 11:20 12,5 C 11,7 C 12,5 C 78 % 1013,3 hPa 0,0 l/m 1,6 km/h (1 Bft) S-SW 202 10 min 0,000 mm 680 W/m 8,8 C 12,5 C 11,3 km/h (2 Bft) 100 %
14.04.2016 11:30 12,9 C 12,5 C 12,9 C 77 % 1013,4 hPa 0,0 l/m 3,2 km/h (1 Bft) S-SW 202 10 min 0,000 mm 675 W/m 9,0 C 12,9 C 11,3 km/h (2 Bft) 100 %
14.04.2016 11:40 13,3 C 12,5 C 13,3 C 76 % 1013,1 hPa 0,0 l/m 2,2 km/h (1 Bft) SW 217 10 min 0,001 mm 708 W/m 9,2 C 13,3 C 9,7 km/h (2 Bft) 100 %
14.04.2016 11:50 13,4 C 13,3 C 13,6 C 72 % 1013,2 hPa 0,0 l/m 0,9 km/h (0 Bft) W 275 10 min 0,000 mm 772 W/m 8,5 C 13,4 C 9,7 km/h (2 Bft) 99 %
14.04.2016 12:00 13,8 C 13,4 C 13,8 C 67 % 1013,2 hPa 0,0 l/m 2,4 km/h (1 Bft) W-NW 294 10 min 0,330 mm 717 W/m 7,8 C 13,8 C 9,7 km/h (2 Bft) 100 %
14.04.2016 12:10 14,2 C 13,8 C 14,2 C 64 % 1013,1 hPa 0,0 l/m 3,6 km/h (1 Bft) W-NW 292 10 min 0,000 mm 763 W/m 7,5 C 14,2 C 11,3 km/h (2 Bft) 100 %
14.04.2016 12:20 14,4 C 14,1 C 14,4 C 66 % 1013,1 hPa 0,0 l/m 3,5 km/h (1 Bft) SW 234 10 min 0,000 mm 858 W/m 8,1 C 14,4 C 14,5 km/h (3 Bft) 100 %
14.04.2016 12:30 14,1 C 14,1 C 14,4 C 61 % 1013,2 hPa 0,0 l/m 1,1 km/h (1 Bft) W-SW 238 0 min 0,000 mm 148 W/m 6,7 C 14,1 C 9,7 km/h (2 Bft) 100 %
14.04.2016 12:40 13,9 C 13,8 C 14,1 C 61 % 1013,1 hPa 0,0 l/m 0,3 km/h (0 Bft) SW 225 10 min 0,000 mm 780 W/m 6,5 C 13,9 C 6,4 km/h (2 Bft) 100 %
14.04.2016 12:50 14,3 C 13,9 C 14,3 C 61 % 1013,0 hPa 0,0 l/m 4,9 km/h (1 Bft) W-SW 240 10 min 0,000 mm 773 W/m 6,9 C 14,3 C 16,1 km/h (3 Bft) 100 %
14.04.2016 13:00 14,6 C 14,3 C 14,6 C 60 % 1012,9 hPa 0,0 l/m 0,6 km/h (0 Bft) SW 236 10 min 0,000 mm 765 W/m 6,9 C 14,6 C 8,0 km/h (2 Bft) 100 %
14.04.2016 13:10 14,6 C 14,6 C 14,7 C 61 % 1012,9 hPa 0,0 l/m 5,2 km/h (1 Bft) S-SW 204 10 min 0,330 mm 831 W/m 7,2 C 14,6 C 16,1 km/h (3 Bft) 100 %
14.04.2016 13:20 14,8 C 14,6 C 14,8 C 58 % 1013,0 hPa 0,0 l/m 5,2 km/h (1 Bft) SW 225 10 min 0,000 mm 798 W/m 6,6 C 14,8 C 17,7 km/h (3 Bft) 100 %
14.04.2016 13:30 14,8 C 14,7 C 14,9 C 57 % 1012,9 hPa 0,0 l/m 5,3 km/h (1 Bft) SW 219 10 min 0,000 mm 840 W/m 6,4 C 14,8 C 17,7 km/h (3 Bft) 100 %
14.04.2016 13:40 15,2 C 14,8 C 15,2 C 60 % 1012,7 hPa 0,0 l/m 6,3 km/h (2 Bft) W-NW 294 10 min 0,000 mm 840 W/m 7,5 C 15,2 C 19,3 km/h (3 Bft) 100 %
14.04.2016 13:50 15,6 C 15,2 C 15,6 C 56 % 1012,7 hPa 0,0 l/m 2,7 km/h (1 Bft) W-SW 254 10 min 0,000 mm 904 W/m 6,9 C 15,6 C 16,1 km/h (3 Bft) 99 %
14.04.2016 14:00 16,1 C 15,6 C 16,1 C 54 % 1012,8 hPa 0,0 l/m 3,2 km/h (1 Bft) NW 326 10 min 0,432 mm 292 W/m 6,8 C 16,1 C 14,5 km/h (3 Bft) 99 %
14.04.2016 14:10 15,6 C 15,6 C 16,1 C 56 % 1012,8 hPa 0,0 l/m 0,7 km/h (0 Bft) N-NW 331 10 min 0,000 mm 856 W/m 6,9 C 15,6 C 8,0 km/h (2 Bft) 98 %
14.04.2016 14:20 15,9 C 15,6 C 15,9 C 56 % 1012,7 hPa 0,0 l/m 0,3 km/h (0 Bft) N-NW 329 10 min 0,000 mm 223 W/m 7,1 C 15,9 C 6,4 km/h (2 Bft) 100 %
14.04.2016 14:30 15,7 C 15,7 C 15,9 C 53 % 1012,7 hPa 0,0 l/m 0,6 km/h (0 Bft) NW 325 10 min 0,000 mm 197 W/m 6,1 C 15,7 C 8,0 km/h (2 Bft) 100 %
14.04.2016 14:40 15,1 C 15,1 C 15,7 C 53 % 1012,6 hPa 0,0 l/m 0,0 km/h (0 Bft) N-NW 329 10 min 0,000 mm 239 W/m 5,6 C 15,1 C 1,6 km/h (1 Bft) 100 %
14.04.2016 14:50 15,1 C 15,1 C 15,1 C 53 % 1012,6 hPa 0,0 l/m 0,2 km/h (0 Bft) N-NW 327 10 min 0,000 mm 250 W/m 5,6 C 15,1 C 3,2 km/h (1 Bft) 100 %
14.04.2016 15:00 15,6 C 15,1 C 15,6 C 50 % 1012,5 hPa 0,0 l/m 0,0 km/h (0 Bft) N-NW 329 10 min 0,228 mm 861 W/m 5,2 C 15,6 C 1,6 km/h (1 Bft) 100 %
14.04.2016 15:10 16,2 C 15,6 C 16,2 C 56 % 1012,4 hPa 0,0 l/m 1,5 km/h (1 Bft) NW 306 10 min 0,000 mm 807 W/m 7,4 C 16,2 C 8,0 km/h (2 Bft) 100 %
14.04.2016 15:20 16,6 C 16,2 C 16,6 C 52 % 1012,3 hPa 0,0 l/m 0,6 km/h (0 Bft) W 261 10 min 0,000 mm 752 W/m 6,7 C 16,6 C 11,3 km/h (2 Bft) 100 %
14.04.2016 15:30 16,3 C 16,3 C 16,6 C 54 % 1012,2 hPa 0,0 l/m 3,6 km/h (1 Bft) S-SW 207 10 min 0,000 mm 543 W/m 7,0 C 16,3 C 12,9 km/h (3 Bft) 100 %
14.04.2016 15:40 16,3 C 16,2 C 16,3 C 54 % 1012,1 hPa 0,0 l/m 5,5 km/h (1 Bft) SW 232 10 min 0,000 mm 153 W/m 7,0 C 16,3 C 16,1 km/h (3 Bft) 100 %
14.04.2016 15:50 16,2 C 16,2 C 16,3 C 48 % 1012,0 hPa 0,0 l/m 3,5 km/h (1 Bft) SW 232 10 min 0,000 mm 188 W/m 5,2 C 16,2 C 11,3 km/h (2 Bft) 100 %
14.04.2016 16:00 16,1 C 16,0 C 16,2 C 50 % 1012,0 hPa 0,0 l/m 1,1 km/h (1 Bft) W-SW 255 0 min 0,254 mm 120 W/m 5,7 C 16,1 C 11,3 km/h (2 Bft) 100 %
14.04.2016 16:10 15,9 C 15,9 C 16,1 C 50 % 1012,0 hPa 0,0 l/m 3,5 km/h (1 Bft) W-SW 247 0 min 0,000 mm 79 W/m 5,5 C 15,9 C 14,5 km/h (3 Bft) 100 %
14.04.2016 16:20 16,1 C 15,9 C 16,1 C 50 % 1011,9 hPa 0,0 l/m 2,5 km/h (1 Bft) W-NW 296 0 min 0,000 mm 60 W/m 5,7 C 16,1 C 11,3 km/h (2 Bft) 100 %
14.04.2016 16:30 15,9 C 15,9 C 16,2 C 48 % 1011,8 hPa 0,0 l/m 2,5 km/h (1 Bft) SW 223 0 min 0,000 mm 116 W/m 4,9 C 15,9 C 14,5 km/h (3 Bft) 100 %
14.04.2016 16:40 15,9 C 15,7 C 15,9 C 54 % 1011,9 hPa 0,0 l/m 1,7 km/h (1 Bft) S-SW 212 0 min 0,000 mm 51 W/m 6,6 C 15,9 C 14,5 km/h (3 Bft) 100 %
14.04.2016 16:50 16,2 C 15,9 C 16,2 C 52 % 1011,9 hPa 0,0 l/m 3,3 km/h (1 Bft) W-SW 238 0 min 0,000 mm 95 W/m 6,3 C 16,2 C 14,5 km/h (3 Bft) 100 %
14.04.2016 17:00 16,0 C 16,0 C 16,2 C 54 % 1011,6 hPa 0,0 l/m 3,3 km/h (1 Bft) S-SW 200 0 min 0,077 mm 125 W/m 6,7 C 16,0 C 16,1 km/h (3 Bft) 100 %
14.04.2016 17:10 15,6 C 15,6 C 16,0 C 55 % 1011,6 hPa 0,0 l/m 2,7 km/h (1 Bft) S-SW 206 0 min 0,000 mm 125 W/m 6,6 C 15,6 C 16,1 km/h (3 Bft) 100 %
14.04.2016 17:20 15,5 C 15,5 C 15,6 C 53 % 1011,5 hPa 0,0 l/m 2,8 km/h (1 Bft) SO 136 0 min 0,000 mm 128 W/m 6,0 C 15,5 C 14,5 km/h (3 Bft) 100 %
14.04.2016 17:30 15,8 C 15,5 C 15,8 C 55 % 1011,4 hPa 0,0 l/m 3,6 km/h (1 Bft) SW 231 0 min 0,000 mm 107 W/m 6,8 C 15,8 C 14,5 km/h (3 Bft) 99 %
14.04.2016 17:40 16,0 C 15,8 C 16,0 C 53 % 1011,5 hPa 0,0 l/m 3,3 km/h (1 Bft) S 177 0 min 0,000 mm 148 W/m 6,4 C 16,0 C 16,1 km/h (3 Bft) 100 %
14.04.2016 17:50 15,5 C 15,5 C 16,0 C 54 % 1011,6 hPa 0,0 l/m 3,3 km/h (1 Bft) S-SW 213 0 min 0,000 mm 98 W/m 6,2 C 15,5 C 16,1 km/h (3 Bft) 100 %
14.04.2016 18:00 15,5 C 15,4 C 15,5 C 52 % 1011,7 hPa 0,0 l/m 4,1 km/h (1 Bft) W-SW 248 0 min 0,101 mm 69 W/m 5,7 C 15,5 C 11,3 km/h (2 Bft) 100 %
14.04.2016 18:10 15,6 C 15,5 C 15,6 C 53 % 1011,8 hPa 0,0 l/m 2,3 km/h (1 Bft) SW 217 0 min 0,000 mm 67 W/m 6,1 C 15,6 C 9,7 km/h (2 Bft) 100 %
14.04.2016 18:20 15,4 C 15,4 C 15,6 C 53 % 1011,8 hPa 0,0 l/m 2,6 km/h (1 Bft) SW 216 0 min 0,000 mm 67 W/m 5,9 C 15,4 C 11,3 km/h (2 Bft) 100 %
14.04.2016 18:30 15,2 C 15,2 C 15,4 C 55 % 1011,8 hPa 0,0 l/m 4,1 km/h (1 Bft) SW 219 0 min 0,000 mm 42 W/m 6,2 C 15,2 C 14,5 km/h (3 Bft) 100 %
14.04.2016 18:40 15,1 C 15,1 C 15,2 C 56 % 1011,7 hPa 0,0 l/m 5,7 km/h (1 Bft) SW 221 0 min 0,000 mm 37 W/m 6,4 C 15,1 C 14,5 km/h (3 Bft) 100 %
14.04.2016 18:50 14,8 C 14,8 C 15,1 C 57 % 1011,8 hPa 0,0 l/m 5,8 km/h (2 Bft) SW 217 0 min 0,000 mm 40 W/m 6,4 C 14,8 C 14,5 km/h (3 Bft) 100 %
14.04.2016 19:00 14,6 C 14,6 C 14,8 C 59 % 1011,6 hPa 0,0 l/m 2,1 km/h (1 Bft) S-SW 213 0 min 0,051 mm 42 W/m 6,7 C 14,6 C 11,3 km/h (2 Bft) 100 %
14.04.2016 19:10 14,4 C 14,4 C 14,6 C 58 % 1011,5 hPa 0,0 l/m 1,3 km/h (1 Bft) S 189 0 min 0,000 mm 12 W/m 6,2 C 14,4 C 8,0 km/h (2 Bft) 100 %
14.04.2016 19:20 14,2 C 14,2 C 14,4 C 60 % 1011,5 hPa 0,0 l/m 0,4 km/h (0 Bft) S-SW 195 0 min 0,000 mm 11 W/m 6,5 C 14,2 C 8,0 km/h (2 Bft) 100 %
14.04.2016 19:30 13,9 C 13,9 C 14,2 C 61 % 1011,3 hPa 0,0 l/m 0,5 km/h (0 Bft) S 190 0 min 0,000 mm 0 W/m 6,5 C 13,9 C 6,4 km/h (2 Bft) 100 %
14.04.2016 19:40 13,8 C 13,8 C 14,0 C 60 % 1011,4 hPa 0,0 l/m 0,1 km/h (0 Bft) S-SO 165 0 min 0,000 mm 0 W/m 6,2 C 13,8 C 3,2 km/h (1 Bft) 100 %
14.04.2016 19:50 13,4 C 13,4 C 13,8 C 64 % 1011,3 hPa 0,0 l/m 0,0 km/h (0 Bft) S-SO 165 0 min 0,000 mm 0 W/m 6,7 C 13,4 C 0,0 km/h (0 Bft) 100 %
14.04.2016 20:00 13,0 C 13,0 C 13,4 C 62 % 1011,3 hPa 0,0 l/m 0,0 km/h (0 Bft) S-SO 165 0 min 0,000 mm 0 W/m 5,9 C 13,0 C 0,0 km/h (0 Bft) 100 %
14.04.2016 20:10 12,7 C 12,7 C 13,0 C 63 % 1011,3 hPa 0,0 l/m 0,0 km/h (0 Bft) S-SO 165 0 min 0,000 mm 0 W/m 5,8 C 12,7 C 0,0 km/h (0 Bft) 100 %
14.04.2016 20:20 12,4 C 12,4 C 12,7 C 63 % 1011,2 hPa 0,0 l/m 0,0 km/h (0 Bft) S-SO 165 0 min 0,000 mm 0 W/m 5,6 C 12,4 C 1,6 km/h (1 Bft) 100 %
14.04.2016 20:30 12,3 C 12,3 C 12,4 C 63 % 1011,1 hPa 0,0 l/m 0,0 km/h (0 Bft) S-SO 165 0 min 0,000 mm 0 W/m 5,5 C 12,3 C 0,0 km/h (0 Bft) 100 %
14.04.2016 20:40 12,3 C 12,3 C 12,3 C 63 % 1011,1 hPa 0,0 l/m 0,0 km/h (0 Bft) S-SO 165 0 min 0,000 mm 0 W/m 5,5 C 12,3 C 0,0 km/h (0 Bft) 100 %
14.04.2016 20:50 12,2 C 12,2 C 12,3 C 63 % 1011,0 hPa 0,0 l/m 0,0 km/h (0 Bft) S-SO 155 0 min 0,000 mm 0 W/m 5,4 C 12,2 C 1,6 km/h (1 Bft) 100 %
14.04.2016 21:00 12,1 C 12,1 C 12,2 C 65 % 1011,1 hPa 0,0 l/m 0,0 km/h (0 Bft) S-SO 155 0 min 0,025 mm 0 W/m 5,7 C 12,1 C 0,0 km/h (0 Bft) 100 %
14.04.2016 21:10 11,7 C 11,7 C 12,1 C 67 % 1011,1 hPa 0,0 l/m 0,0 km/h (0 Bft) N 0 0 min 0,000 mm 0 W/m 5,8 C 11,7 C 0,0 km/h (0 Bft) 100 %
14.04.2016 21:20 11,4 C 11,4 C 11,7 C 68 % 1011,1 hPa 0,0 l/m 0,0 km/h (0 Bft) N 0 0 min 0,000 mm 0 W/m 5,7 C 11,4 C 0,0 km/h (0 Bft) 100 %
14.04.2016 21:30 11,0 C 11,0 C 11,4 C 71 % 1011,2 hPa 0,0 l/m 0,0 km/h (0 Bft) N 0 0 min 0,000 mm 0 W/m 5,9 C 11,0 C 0,0 km/h (0 Bft) 90 %
14.04.2016 21:40 10,6 C 10,6 C 11,0 C 72 % 1011,1 hPa 0,0 l/m 0,0 km/h (0 Bft) N 0 0 min 0,000 mm 0 W/m 5,8 C 10,6 C 0,0 km/h (0 Bft) 100 %
14.04.2016 21:50 10,3 C 10,3 C 10,6 C 72 % 1011,0 hPa 0,0 l/m 0,0 km/h (0 Bft) N 0 0 min 0,000 mm 0 W/m 5,5 C 10,3 C 0,0 km/h (0 Bft) 100 %
14.04.2016 22:00 9,9 C 9,9 C 10,3 C 74 % 1011,1 hPa 0,0 l/m 0,0 km/h (0 Bft) N 0 0 min 0,025 mm 0 W/m 5,5 C 9,9 C 0,0 km/h (0 Bft) 100 %
14.04.2016 22:10 9,6 C 9,6 C 9,9 C 74 % 1011,1 hPa 0,0 l/m 0,0 km/h (0 Bft) N 0 0 min 0,000 mm 0 W/m 5,2 C 9,6 C 0,0 km/h (0 Bft) 100 %
14.04.2016 22:20 9,4 C 9,4 C 9,6 C 76 % 1011,0 hPa 0,0 l/m 0,0 km/h (0 Bft) N 0 0 min 0,000 mm 0 W/m 5,4 C 9,4 C 0,0 km/h (0 Bft) 99 %
14.04.2016 22:30 9,2 C 9,2 C 9,4 C 76 % 1011,0 hPa 0,0 l/m 0,0 km/h (0 Bft) N 0 0 min 0,000 mm 0 W/m 5,2 C 9,2 C 0,0 km/h (0 Bft) 100 %
14.04.2016 22:40 8,9 C 8,9 C 9,2 C 77 % 1010,9 hPa 0,0 l/m 0,0 km/h (0 Bft) N 0 0 min 0,000 mm 0 W/m 5,1 C 8,9 C 0,0 km/h (0 Bft) 100 %
14.04.2016 22:50 8,7 C 8,7 C 8,9 C 79 % 1010,9 hPa 0,0 l/m 0,0 km/h (0 Bft) N 0 0 min 0,000 mm 0 W/m 5,3 C 8,7 C 0,0 km/h (0 Bft) 100 %
14.04.2016 23:00 8,4 C 8,4 C 8,7 C 80 % 1010,8 hPa 0,0 l/m 0,0 km/h (0 Bft) N 0 0 min 0,025 mm 0 W/m 5,2 C 8,4 C 0,0 km/h (0 Bft) 100 %
14.04.2016 23:10 8,3 C 8,3 C 8,4 C 80 % 1010,8 hPa 0,0 l/m 0,0 km/h (0 Bft) N 0 0 min 0,000 mm 0 W/m 5,1 C 8,3 C 0,0 km/h (0 Bft) 100 %
14.04.2016 23:20 8,2 C 8,1 C 8,3 C 81 % 1010,7 hPa 0,0 l/m 0,0 km/h (0 Bft) N 0 0 min 0,000 mm 0 W/m 5,1 C 8,2 C 0,0 km/h (0 Bft) 100 %
14.04.2016 23:30 8,0 C 8,0 C 8,1 C 82 % 1010,6 hPa 0,0 l/m 0,0 km/h (0 Bft) N 0 0 min 0,000 mm 0 W/m 5,1 C 8,0 C 0,0 km/h (0 Bft) 100 %
14.04.2016 23:40 7,8 C 7,8 C 8,0 C 82 % 1010,4 hPa 0,0 l/m 0,0 km/h (0 Bft) N 0 0 min 0,000 mm 0 W/m 4,9 C 7,8 C 0,0 km/h (0 Bft) 100 %
14.04.2016 23:50 7,7 C 7,7 C 7,8 C 83 % 1010,4 hPa 0,0 l/m 0,0 km/h (0 Bft) N 0 0 min 0,000 mm 0 W/m 5,0 C 7,7 C 0,0 km/h (0 Bft) 100 %
_ Min-Zeit 03:40 03:40 03:40 15:50 00:00 - 00:00 - - - - - 03:40 03:40 00:30 04:40
Minimum _ 6,1 C 6,1 C 6,2 C 48 % 1009,0 hPa - 0,0 km/h (0 Bft) - - - - - 4,7 C 6,1 C 0,0 km/h (0 Bft) 88 %
_ Max-Zeit 15:20 15:30 15:20 06:50 11:30 00:00 11:00 - - 09:50 14:00 13:50 11:40 15:20 13:40 00:00
Maximum _ 16,6 C 16,3 C 16,6 C 92 % 1013,4 hPa 0,0 l/m 6,4 km/h
SW (2 Bft)
- - 10 min 0,432 mm 904 W/m 9,2 C 16,6 C 19,3 km/h
W-SW (3 Bft)
100 %
Durchschnitt _ 10,5 C 10,4 C 10,6 C 76 % 1011,4 hPa #0,0 l/m 1,1 km/h (0 Bft) SW - #6:00 h #2,107 mm 339 W/m 6,0 C 10,5 C 4,9 km/h (1 Bft) 99 %
PRIVATE WETTERSTATION BILLIGHEIM-ALLFELD - www.neckar-odenwald-wetter.de - Holger Sonntag